Main page
METAR-TAF:

METAR-TAF

Airports :

Rasht, Iran

Rasht Airport

latitude: 37-12N, longitude: 049-38E, elevation: -7 m

Current weather observation

The report was made 20 minutes ago, at 09:30 UTC
Wind 4 kt from the Northeast
Temperature 21°C
Humidity 64%
Pressure 1011 hPa
Visibility 10 km or more
Few clouds at a height of 2000 ft

METAR: OIGG 220930Z 05004KT 9999 FEW020 21/14 Q1011

Time: 13:20 (09:50 UTC)


TAF: missing

Weather observations and forecasts of more than 4000 airports (METAR and TAF reports).

The available stations are represented by yellow and red dots on the map.

Hover mouse over dot to see the name of the station.

Then click to see weather observations and forecasts.

To change the map : click on the green buttons with a black cross to zoom in, on the green button with a dash to zoom out, or on the green arrows for adjacent maps.


METAR-TAF: